Hourly Data Report for October 21, 2014

All times are specified in Local Standard Time (LST). Add 1 hour to adjust for Daylight Saving Time where and when it is observed.

BAKER LAKE A
NUNAVUT

64°17'56.000" N
96°04'40.000" W
18.60 m
2300503
71926
YBK

Download Data

Hourly Data (October 2014)
Hourly Data Report for October 21, 2014
Temp Definition
°C
Dew Point Temp Definition
°C
Rel Hum Definition
%
Wind Dir Definition
10's deg

Wind Spd Definition
km/h
Visibility Definition
km
Stn Press Definition
kPa
Hmdx Definition


Wind Chill Definition


Weather Definition


TIME
00:00 Legend Double Dagger -3.4 -4.8 90 13 31 16.1 100.46   -11 Snow,Blowing Snow
01:00 Legend Double Dagger -2.1 -3.4 91 14 44 16.1 100.23   -11 Snow,Blowing Snow
02:00 Legend Double Dagger -1.3 -2.4 92 15 37 16.1 100.06   -9 Snow,Blowing Snow
03:00 Legend Double Dagger -0.5 -1.5 93 16 32 24.1 99.98   -7 Snow,Blowing Snow
04:00 Legend Double Dagger -0.1 -0.7 96 17 35 24.1 99.81   -7 Snow,Blowing Snow
05:00 Legend Double Dagger 0.3 -0.4 95 17 29 24.1 99.69     Snow,Blowing Snow
06:00 Legend Double Dagger 0.5 -0.2 95 18 24 24.1 99.62     Snow,Blowing Snow
07:00 Legend Double Dagger 0.5 0.1 97 19 20 24.1 99.54     LegendNANA
08:00 Legend Double Dagger 0.6 0.3 98 20 14 16.1 99.46     Drizzle
09:00 Legend Double Dagger 0.7 0.4 98 22 16 16.1 99.42     Drizzle
10:00 Legend Double Dagger 0.7 0.4 98 21 13 16.1 99.35     Drizzle
11:00 Legend Double Dagger 0.7 0.4 98 21 10 24.1 99.29     Drizzle
12:00 Legend Double Dagger 0.9 0.6 98 23 11 24.1 99.31     Drizzle
13:00 Legend Double Dagger 0.8 0.5 98 23 8 24.1 99.31     Drizzle
14:00 Legend Double Dagger 0.9 0.8 99 23 12 8.1 99.33     Drizzle,Fog
15:00 Legend Double Dagger 0.8 0.7 99 20 7 8.1 99.30     Drizzle,Fog
16:00 Legend Double Dagger 1.3 1.0 98 27 10 16.1 99.30     Drizzle,Fog
17:00 Legend Double Dagger 0.9 0.6 98 24 15 24.1 99.31     Fog
18:00 Legend Double Dagger 1.4 0.8 96 28 29 24.1 99.40     Mostly Cloudy
19:00 Legend Double Dagger 1.6 0.9 95 26 27 24.1 99.47     LegendNANA
20:00 Legend Double Dagger 1.4 0.8 96 27 18 24.1 99.48     LegendNANA
21:00 Legend Double Dagger 1.5 0.8 95 28 25 24.1 99.56     Cloudy
22:00 Legend Double Dagger 1.2 0.5 95 28 26 24.1 99.64     LegendNANA
23:00 Legend Double Dagger 1.2 0.5 95 29 20 24.1 99.70     Drizzle

Notes on Data Quality.

Legend

  • E = Estimated
  • M = Missing
  • NA = Not Available
  • ‡ = Partner data that is not subject to review by the National Climate Archives
Date modified: